Weather in Manzurka

Russia / Irkutsk Oblast     53°28′55″N   106°03′54″E
temp.,
°C
wind,
m/s
gust,
m/s
humid.,
%
clouds,
%
prec.,
mm/h
press.,
hPa
HPBL,
m
5 december, sun
sun523:00−9sw2293100 0.0 102140
02:00−9ssw239697 0.0 102251
05:00−8sw269595 0.0 1023130
08:00−5w513675 0.0 1023783
11:00−5wnw614678 0.0 10251607
14:00−6wnw5116651 0.0 10271408
17:00−11wsw229087 0.0 103119
20:00−11ssw2392100 0.0 103148
6 december, mon
mon623:00−12ssw2595100 0.0 103198
02:00−14s129880 0.0 102925
05:00−11s138994 0.0 102691
08:00−14ssw119689 0.0 102513
11:00−9s258020 0.0 1024115
14:00−4s247483 0.0 1021165
17:00−9s1194100 0.0 102314
20:00−10ssw2293100 0.0 102440
7 december, tue
tue723:00−9s2286100 0.0 102443
02:00−11ssw119228 0.0 102515
05:00−14s119365 0.0 102613
08:00−14ssw11939 0.0 102710
11:00−8s11728 0.0 102548
14:00−3e00646 0.0 102158
17:00−10nnw118814 0.0 102110
20:00−12wsw009477 0.0 10209
8 december, wed
wed823:00−13ssw009661 0.0 10209
02:00−14s009674 0.0 10209
05:00−14wnw0096100 0.0 102110
08:00−10n0089100 0.0 102115
11:00−6ssw1192100 0.4 102278
14:00−3nnw61076100 0.5 10231054
17:00−7nw51163100 0.0 1027575
20:00−14wnw11895 0.0 103323
9 december, thu
thu923:00−18wsw11967 0.0 103616
02:00−20sw11997 0.0 103810
05:00−21s119919 0.0 103911
08:00−23s1110016 0.0 104010
11:00−18e008791 0.0 104080
14:00−14ne127888 0.0 1038209
17:00−18n119685 0.0 10409
20:00−21nnw11995 0.0 10429